钟子号卫星2组 01星 (NINGXIA-1 6)

导读 | 星芒AI

NINGXIA-1 6 是由中国宁夏回族自治区主导研制的一颗遥感卫星,主要用于国土资源监测、农业资源调查及生态环境评估等领域。该卫星具备高分辨率成像能力,能够提供清晰的地表图像,支持精准农业、灾害预警和城市规划等应用。作为宁夏在航天领域的重要成果,NINGXIA-1 6 有助于推动区域经济发展和科技创新,提升地方在遥感数据获取与应用方面的能力。

基本信息
目录编号:
49018
目录名称:
NINGXIA-1 6
国际标识:
2021-064A
轨道中心:
EARTH
卫星名称:
钟子号卫星2组 01星
卫星全名:
钟子号卫星2组 01星 (NINGXIA-1 6)
卫星状态:
在轨 (已飞行1573 天)
发射日期:
2021-07-09 UTC
国别 :
中国 (CN)
星等 :
--
轨道信息
数据来源 国际轨道数据 AOE轨道数据
星历时间 2025-10-29T00:30:56+0800
16小时前
查看轨道信息
2025-10-22T21:00:00+0800
6天前
查看轨道信息
半长轴 7242.709km 7242.713km
偏心率 0.0007705 0.0007372
轨道倾角 44.999° 44.999°
近地点辐角 208.163° 179.571°
升交点赤经 192.915° 220.680°
平近点角 151.879° 305.147°
近地点 858.993km 859.238km
远地点 870.155km 869.918km
周期 102.238分钟 102.238分钟
每日圈数 14.084818 14.084808
详细信息
平衡模式:
三轴稳定
覆盖范围:
全球
运营商:
夏威夷科学技术博物馆
运营商所在国:
美国
制造商(研发单位):
中国东方红卫星股份有限公司
制造商所在国:
中国
使用方式:
暂无
卫星简介
钟子号卫星星座(Zhongzi)是由宁夏金硅信息技术有限公司自主投资建设的商业航天项目,卫星由五院所属航天东方红卫星有限公司抓总研制,主要应用于遥感探测等领域。该卫星仍在工作。
2D轨道图
3D轨道图
轨道高度分析图
轨道倾角分析图
轨道综合分析图
查看轨道综合分析图